This demonstration page uses our WeatherBlox Daily Observations layout. Learn more.

Left ArrowRight Arrow

Hourly Observations for April 4, 2021

Temp ( °F °C ) Dew Point ( °F °C ) Humidity (%) Winds ( mph kmh ) Pressure ( in mb ) Visibility ( mi km ) Precip ( " mm )
12:15 am 00:15 Clear 55 12.7 42 5.3 61 61 SSE 8 13 30.04 1017 10 16.0934 0 0
12:35 am 00:35 Clear 55 12.9 42 5.5 61 61 SSE 8 13 30.04 1017 10 16.0934 0 0
12:55 am 00:55 Clear 53 11.7 42 5.5 66 66 SSE 8 13 30.04 1017 10 16.0934 0 0
1:15 am 01:15 Clear 52 11.2 42 5.3 67 67 SSE 7 11 30.04 1017 10 16.0934 0 0
1:35 am 01:35 Clear 51 10.5 41 5.2 70 70 SSE 7 11 30.05 1018 10 16.0934 0 0
1:55 am 01:55 Clear 50 9.8 41 5.2 73 73 S 6 9 30.05 1018 10 16.0934 0 0
2:15 am 02:15 Clear 50 10.2 42 5.6 73 73 S 8 13 30.05 1018 10 16.0934 0 0
2:35 am 02:35 Clear 50 10.2 43 5.9 75 75 S 10 17 30.04 1017 10 16.0934 0 0
2:55 am 02:55 Clear 51 10.8 43 6.2 73 73 S 9 15 30.04 1017 10 16.0934 0 0
3:15 am 03:15 Clear 53 11.5 43 6.1 70 70 S 10 17 30.01 1016 10 16.0934 0 0
3:35 am 03:35 Clear 54 12.2 43 6 66 66 SSW 13 20 30 1016 10 16.0934 0 0
3:55 am 03:55 Clear 54 12 43 6 67 67 SSW 7 11 30 1016 10 16.0934 0 0
4:15 am 04:15 Clear 54 12 42 5.7 66 66 SSW 9 15 30 1016 10 16.0934 0 0
4:35 am 04:35 Clear 53 11.6 42 5.5 66 66 SSW 7 11 29.99 1016 10 16.0934 0 0
4:55 am 04:55 Clear 53 11.6 42 5.5 66 66 SSW 12 19 29.99 1016 10 16.0934 0 0
5:15 am 05:15 Clear 52 11.1 42 5.3 68 68 SW 8 13 29.99 1016 10 16.0934 0 0
5:35 am 05:35 Clear 52 11 42 5.3 68 68 SSW 5 7 29.98 1015 10 16.0934 0 0
5:55 am 05:55 Clear 53 11.5 42 5.3 66 66 SSW 8 13 29.98 1015 10 16.0934 0 0
6:15 am 06:15 Clear 52 11.3 41 5.2 66 66 S 7 11 29.97 1015 10 16.0934 0 0
6:35 am 06:35 Clear 51 10.8 41 5.1 68 68 SSW 6 9 29.98 1015 10 16.0934 0 0
6:55 am 06:55 Clear 51 10.5 42 5.5 71 71 SSW 7 11 29.98 1015 10 16.0934 0 0
7:15 am 07:15 Clear 51 10.4 42 5.6 72 72 SSW 10 17 29.99 1016 10 16.0934 0 0
7:35 am 07:35 Sunny 51 10.3 42 5.6 73 73 SSW 7 11 29.99 1016 10 16.0934 0 0
7:55 am 07:55 Sunny 51 10.8 43 6 72 72 SSW 5 7 30 1016 10 16.0934 0 0
8:15 am 08:15 Sunny 52 11.1 43 6.2 72 72 SW 3 6 30 1016 10 16.0934 0 0
8:35 am 08:35 Sunny 54 12 44 6.5 69 69 WSW 3 6 30 1016 10 16.0934 0 0
8:55 am 08:55 Sunny 55 12.5 44 6.5 67 67 SW 5 7 29.99 1016 10 16.0934 0 0
9:15 am 09:15 Sunny 56 13.3 44 6.6 64 64 SW 6 9 29.97 1015 10 16.0934 0 0
9:35 am 09:35 Sunny 58 14.4 44 6.6 60 60 SW 6 9 29.96 1015 10 16.0934 0 0
9:55 am 09:55 Sunny 60 15.6 43 6 53 53 SW 3 6 29.95 1014 10 16.0934 0 0
10:15 am 10:15 Sunny 62 16.6 42 5.4 48 48 SW 5 7 29.95 1014 10 16.0934 0 0
10:35 am 10:35 Sunny 64 17.5 40 4.4 42 42 Calm 29.94 1014 10 16.0934 0 0
10:55 am 10:55 Sunny 65 18.6 39 4 38 38 Calm 29.93 1014 10 16.0934 0 0
11:15 am 11:15 Sunny 67 19.6 38 3.4 34 34 Calm 29.92 1013 10 16.0934 0 0
11:35 am 11:35 Sunny 69 20.8 37 3 31 31 SSE 3 6 29.91 1013 10 16.0934 0 0
11:55 am 11:55 Sunny 72 22 38 3.4 30 30 S 5 7 29.89 1012 10 16.0934 0 0
12:15 pm 12:15 Sunny 73 22.7 39 3.8 29 29 SE 3 6 29.88 1012 10 16.0934 0 0
12:35 pm 12:35 Sunny 74 23.2 40 4.6 30 30 S 9 15 29.87 1012 10 16.0934 0 0
12:55 pm 12:55 Sunny 75 24 41 4.8 29 29 SSW 5 7 29.85 1011 10 16.0934 0 0
1:15 pm 13:15 Sunny 78 25.3 39 4.1 25 25 S 6 9 29.82 1010 10 16.0934 0 0
1:35 pm 13:35 Sunny 80 26.5 40 4.5 24 24 S 7 11 29.81 1009 10 16.0934 0 0
1:55 pm 13:55 Sunny 82 27.6 40 4.6 23 23 S 12 19 29.79 1009 10 16.0934 0 0
2:15 pm 14:15 Sunny 83 28.5 40 4.7 22 22 S 14 22 29.77 1008 10 16.0934 0 0
2:35 pm 14:35 Sunny 84 29 40 4.3 21 21 S 10 17 29.76 1008 10 16.0934 0 0
2:55 pm 14:55 Sunny 85 29.6 40 4.3 20 20 S 14 22 29.74 1007 10 16.0934 0 0
3:15 pm 15:15 Sunny 86 29.9 40 4.3 20 20 SSW 14 22 29.73 1007 10 16.0934 0 0
3:35 pm 15:35 Sunny 87 30.6 38 3.5 18 18 SW 15 24 29.71 1006 10 16.0934 0 0
3:55 pm 15:55 Sunny 87 30.7 38 3.2 17 17 SSW 12 19 29.69 1006 10 16.0934 0 0
4:15 pm 16:15 Sunny 87 30.7 37 2.9 17 17 SSW 17 28 29.69 1006 10 16.0934 0 0
4:35 pm 16:35 Sunny 87 30.8 38 3.2 17 17 SW 12 19 29.68 1005 10 16.0934 0 0
4:55 pm 16:55 Sunny 88 31.3 36 2.3 16 16 SW 10 17 29.66 1004 10 16.0934 0 0
5:15 pm 17:15 Sunny 88 30.9 35 1.7 15 15 S 9 15 29.66 1004 10 16.0934 0 0
5:35 pm 17:35 Sunny 86 30.1 33 0.6 15 15 SSW 17 28 29.68 1005 10 16.0934 0 0
5:55 pm 17:55 Partly Cloudy 84 28.9 32 -0.1 15 15 WSW 17 28 29.7 1006 7 11.26538 0 0
6:15 pm 18:15 Partly Cloudy 82 28 32 0.2 16 16 WSW 10 17 29.72 1007 10 16.0934 0 0
6:35 pm 18:35 Partly Cloudy 81 27 33 0.5 18 18 W 12 19 29.72 1006 10 16.0934 0 0
6:55 pm 18:55 Partly Cloudy 81 27 33 0.7 18 18 S 12 19 29.73 1007 10 16.0934 0 0
7:15 pm 19:15 Mostly Cloudy 79 25.9 37 2.6 22 22 ESE 13 20 29.71 1006 10 16.0934 0 0
7:35 pm 19:35 Partly Cloudy 81 27.1 33 0.8 18 18 SSE 10 17 29.69 1005 10 16.0934 0 0
7:55 pm 19:55 Partly Cloudy 77 25.2 36 2.2 22 22 SSE 13 20 29.71 1006 10 16.0934 0 0
8:15 pm 20:15 Partly Cloudy 75 24 38 3.2 26 26 SE 15 24 29.72 1006 10 16.0934 0 0
8:35 pm 20:35 Clear 74 23.2 38 3.4 28 28 SE 14 22 29.72 1006 10 16.0934 0 0
8:55 pm 20:55 Clear 72 22.2 39 3.8 30 30 SSE 13 20 29.73 1007 10 16.0934 0 0
9:15 pm 21:15 Clear 71 21.5 40 4.3 33 33 SSE 14 22 29.74 1007 10 16.0934 0 0
9:35 pm 21:35 Clear 71 21.5 40 4.6 33 33 SSE 13 20 29.75 1007 10 16.0934 0 0
9:55 pm 21:55 Clear 70 21.3 41 5.1 35 35 S 14 22 29.74 1007 10 16.0934 0 0
10:15 pm 22:15 Clear 71 21.6 42 5.5 35 35 S 17 28 29.73 1007 10 16.0934 0 0
10:35 pm 22:35 Clear 70 21.2 42 5.4 36 36 S 16 26 29.74 1007 10 16.0934 0 0
10:55 pm 22:55 Clear 69 20.3 42 5.5 38 38 S 14 22 29.75 1007 10 16.0934 0 0
11:15 pm 23:15 Clear 67 19.5 43 6 41 41 S 14 22 29.76 1008 10 16.0934 0 0
11:35 pm 23:35 Clear 67 19.6 44 6.4 42 42 S 14 22 29.75 1007 10 16.0934 0 0
11:55 pm 23:55 Clear 68 20 44 6.6 42 42 S 16 26 29.76 1008 10 16.0934 0 0

Powered by AerisWeather